Lexington Weather

Lexington, Massachusetts, USA

67°F
9/23/2021 4:36am 
  • Lexington Conditions: Overcast
  • Temperature: 66.9°F / 19.4°CWarmer 0.5°F than last hour.
  • Dew Point: 65.7°FIncreased 0.6°Fsince last hour.
  • Relative Humidity: 96
  • Wind: Calm, 10-min avg: Calm, gust: 3 mph
  • Barometer: 30.03 in Steady
  • Visibility: 10 miles
  • Rain Today: 0.00 in
  •   

Regional Weather Roundup
for Boston / Norton, MA

        
000
ASUS41 KBOX 230704
RWRBOX

REGIONAL WEATHER ROUNDUP
NATIONAL WEATHER SERVICE BOSTON/NORTON MA
300 AM EDT THU SEP 23 2021

NOTE:  "FAIR" INDICATES FEW OR NO CLOUDS BELOW 12,000 FEET WITH NO 
SIGNIFICANT WEATHER AND/OR OBSTRUCTIONS TO VISIBILITY.

MAZALL-230800-
EASTERN MASSACHUSETTS
  
CITY           SKY/WX    TMP DP  RH WIND       PRES   REMARKS
BOSTON         PTCLDY    68  64  87 CALM      30.10F                  
BEVERLY        CLEAR     66  44  45 SE5       30.10F                  
LAWRENCE       CLEAR     67  65  93 CALM      30.12S                  
BEDFORD        PTCLDY    67  65  93 S5        30.08F                  
BLUE HILL      NOT AVBL                                               
NORWOOD        MOCLDY    66  63  90 S3        30.09F                  
MARSHFIELD     CLOUDY    68  66  94 SE5       30.10F                  
PLYMOUTH       PTCLDY    70  66  87 VRB5      30.11S                  
TAUNTON        CLEAR     70  67  90 SE5       30.09F                  
NEW BEDFORD    PTCLDY    72  68  87 SE9       30.09F                  
$$

MAZALL-230800-
CAPE COD AND THE ISLANDS
  
CITY           SKY/WX    TMP DP  RH WIND       PRES   REMARKS
FALMOUTH       MOCLDY    70  68  94 S14       30.11F                  
HYANNIS        PTCLDY    71  68  90 SE7       30.11S                  
CHATHAM        PTCLDY    67  64  90 SE7       30.14S                  
PROVINCETOWN   CLEAR     68  66  93 SE9       30.13S                  
NANTUCKET        N/A    N/A N/A N/A MISG      30.12F                  
MARTHAS VNYRD  CLOUDY    70  68  93 SE9       30.11S                  
$$
 
MAZALL-230800-
CENTRAL AND WESTERN MASSACHUSETTS
  
CITY           SKY/WX    TMP DP  RH WIND       PRES   REMARKS
WORCESTER      CLOUDY    67  66  97 S7        30.11S                  
FITCHBURG      CLOUDY    69  67  93 SE6       30.09F                  
ORANGE         CLOUDY    70  66  87 SE5       30.08S                  
SPRINGFIELD    PTCLDY    69  67  92 S3        30.04S                  
WESTFIELD      CLOUDY    69  69 100 S3        30.04F                  
NORTH ADAMS    NOT AVBL                                               
PITTSFIELD     CLOUDY    69  64  84 SE7G20    30.02F                  
$$
 
RIZALL-230800-
RHODE ISLAND
  
CITY           SKY/WX    TMP DP  RH WIND       PRES   REMARKS
PROVIDENCE     CLOUDY    71  69  93 S9        30.09S                  
NEWPORT        CLEAR     70  68  93 SE12G22   30.09S                  
BLOCK ISLAND   CLEAR     70  68  93 SE10      30.08F                  
SMITHFIELD     CLOUDY    69  67  93 SE3       30.10S                  
WESTERLY       CLOUDY    70  70 100 SE7       30.07S                  
$$
 
CTZALL-230800-
CONNECTICUT
  
CITY           SKY/WX    TMP DP  RH WIND       PRES   REMARKS
BRADLEY INTL   PTCLDY    68  68 100 S5        30.04F                  
HARTFORD       CLEAR     72  67  84 S7        30.03F                  
BRIDGEPORT     PTCLDY    74  70  87 SE10      30.01F                  
DANBURY        CLOUDY    73  69  87 SE7       30.02F                  
GROTON         CLOUDY    72  70  93 SE16      30.05F                  
NEW HAVEN      CLOUDY    75  72  90 SE9       30.03S                  
CHESTER        FAIR      72  72 100 E8        30.06S                  
MERIDEN        CLOUDY    72  67  84 S3        30.03F                  
WILLIMANTIC    CLOUDY    70  68  93 SE3       30.07S                  
OXFORD         CLOUDY    70  69  97 SE13      30.05F                  
$$

MEZ002-015-021-024-NHZ003-005-008-011-012-014-VTZ005-008-230800-
NORTHERN NEW ENGLAND
  
CITY           SKY/WX    TMP DP  RH WIND       PRES   REMARKS
PORTLAND ME    MOCLDY    64  64 100 S3        30.13S                  
BANGOR ME      CLOUDY    65  64  97 S7        30.17R FOG              
CONCORD NH     CLOUDY    68  66  93 SE7       30.10S                  
MANCHESTER NH  CLOUDY    68  65  90 SE3       30.08S                  
NASHUA NH      MOCLDY    67  67 100 CALM      30.10S                  
PORTSMOUTH NH  NOT AVBL                                               
JAFFREY NH     MOCLDY    69  67  93 S6        30.10S                  
KEENE NH       CLOUDY    68  66  93 CALM      30.07S                  
BURLINGTON VT  CLOUDY    75  63  66 S9        29.95S                  
MT. WASHINGTON FOG       48  48 100 S40G52      N/A  VSB 0            
$$

NYZ052-076-230800-
EASTERN NEW YORK
  
CITY           SKY/WX    TMP DP  RH WIND       PRES   REMARKS
ALBANY         MOCLDY    69  65  86 SE9       29.97F                  
NEW YORK CITY  MOCLDY    76  68  76 SE13      29.96F                  
$$
 
ANZALL-230800-
MARINE OBSERVATIONS
  
STATION/POSITION TIME  TEMP    WIND        PRES    VSBY  WAVE
                       AIR SEA DIR/SP/G                  HT/PER
                 (UTC) (F)     (DEG/KT/KT) (MB)    (MI)  (FT/S)
BOSTON BUOY      0640      65  140/ 12/ 14 1019.5F
BUZZARDS BAY     0600          140/ 18/ 19 1019.8F
NANTUCKET SOUND  0640   73 72  150/ 16/ 19 1019.5F
MASS BAY-STELLWA 0604   67     160/ 10/ 12 1019.1F  1 7/8  3/ 6
ISLE OF SHOALS   0600   67     170/ 14/ 15 1019.3F
S OF BLOCK IS    0626      70                N/A           5/ 6
$$

......................KEY.........................
  SKY/WX - SKY CONDITION/PRESENT WEATHER
  TMP    - TEMPERATURE IN FAHRENHEIT
  DWPT   - DEWPOINT IN FAHRENHEIT
  RH     - RELATIVE HUMIDITY IN PERCENT
  WIND   - DIRECTION AND SPEED IN MPH
  PRES   - MEAN SEA LEVEL PRESSURE IN INCHES OF HG
  WCI    - WIND CHILL INDEX
  VSB    - VISIBILITY IN MILES
  HX     - HEAT INDEX
  TC     - TEMPERATURE IN CELSIUS
  VRB    - VARIABLE WIND DIRECTION
  N/A    - NOT AVAILABLE
  
      

Other recent Regional Weather Roundups

Thu Sep 23, 4:04am

Thu Sep 23, 2:04am

Thu Sep 23, 1:04am

Thu Sep 23, 12:04am

Wed Sep 22, 11:04pm

Wed Sep 22, 10:04pm

Wed Sep 22, 9:04pm

Wed Sep 22, 8:04pm

Wed Sep 22, 7:04pm

Wed Sep 22, 6:04pm

Wed Sep 22, 5:04pm

Wed Sep 22, 4:04pm

Wed Sep 22, 3:04pm

Wed Sep 22, 2:04pm

Wed Sep 22, 1:04pm

Wed Sep 22, 12:05pm

Wed Sep 22, 11:04am

Wed Sep 22, 10:04am

Wed Sep 22, 9:04am

Wed Sep 22, 8:04am

Wed Sep 22, 7:04am

Wed Sep 22, 6:04am

Wed Sep 22, 5:04am

Wed Sep 22, 4:04am

Wed Sep 22, 3:04am

Wed Sep 22, 2:04am

Wed Sep 22, 1:04am

Wed Sep 22, 12:04am

Tue Sep 21, 11:04pm

Tue Sep 21, 10:04pm

Tue Sep 21, 9:04pm

Tue Sep 21, 8:04pm

Tue Sep 21, 7:04pm

Tue Sep 21, 6:04pm

Tue Sep 21, 5:04pm

Tue Sep 21, 4:04pm

Tue Sep 21, 3:04pm

Tue Sep 21, 2:04pm

Tue Sep 21, 1:04pm

Tue Sep 21, 12:04pm

Tue Sep 21, 11:04am

Tue Sep 21, 10:04am

Tue Sep 21, 9:04am

Tue Sep 21, 8:04am

Tue Sep 21, 7:04am

Tue Sep 21, 6:04am

Tue Sep 21, 5:04am

Tue Sep 21, 4:04am

Tue Sep 21, 3:04am

Tue Sep 21, 2:04am

Tue Sep 21, 1:04am

Tue Sep 21, 12:04am

Mon Sep 20, 11:04pm

Mon Sep 20, 10:04pm

Mon Sep 20, 9:04pm

Mon Sep 20, 8:04pm

Mon Sep 20, 7:04pm

Mon Sep 20, 6:04pm

Mon Sep 20, 5:04pm

Mon Sep 20, 4:04pm

Mon Sep 20, 3:04pm

Mon Sep 20, 2:04pm

Mon Sep 20, 1:04pm

Mon Sep 20, 12:04pm

Mon Sep 20, 11:04am

Mon Sep 20, 10:04am

Mon Sep 20, 9:04am

Mon Sep 20, 7:04am

Mon Sep 20, 6:04am

Mon Sep 20, 5:04am

Mon Sep 20, 4:04am

Mon Sep 20, 3:04am

Mon Sep 20, 2:04am

Mon Sep 20, 1:04am

Mon Sep 20, 12:04am

Sun Sep 19, 11:04pm

Sun Sep 19, 10:04pm

Sun Sep 19, 9:04pm

Sun Sep 19, 8:04pm

Sun Sep 19, 7:04pm

Sun Sep 19, 6:04pm

Sun Sep 19, 5:04pm

Sun Sep 19, 4:04pm

Sun Sep 19, 3:04pm

Sun Sep 19, 2:05pm

Sun Sep 19, 1:04pm

Sun Sep 19, 12:04pm

Sun Sep 19, 11:04am

Sun Sep 19, 10:05am

Sun Sep 19, 9:04am

Sun Sep 19, 8:04am

Sun Sep 19, 7:04am

Sun Sep 19, 6:04am

Sun Sep 19, 5:04am

Sun Sep 19, 4:04am

Sun Sep 19, 3:04am

Sun Sep 19, 2:04am

Sun Sep 19, 1:04am

Sun Sep 19, 12:04am

Sat Sep 18, 11:05pm

Sat Sep 18, 10:04pm

Sat Sep 18, 9:04pm

Sat Sep 18, 8:04pm

Sat Sep 18, 7:04pm

Sat Sep 18, 6:04pm

Sat Sep 18, 5:04pm

Sat Sep 18, 4:04pm

Sat Sep 18, 3:04pm

Sat Sep 18, 2:04pm

Sat Sep 18, 1:04pm

Sat Sep 18, 12:04pm

Sat Sep 18, 11:04am

Sat Sep 18, 10:04am

Sat Sep 18, 9:04am

Sat Sep 18, 8:04am

Sat Sep 18, 7:04am

Sat Sep 18, 6:04am

Sat Sep 18, 5:04am

Sat Sep 18, 4:04am

Sat Sep 18, 3:04am

Sat Sep 18, 2:04am

Sat Sep 18, 1:04am

Sat Sep 18, 12:04am

Fri Sep 17, 11:04pm

Fri Sep 17, 10:04pm

Fri Sep 17, 9:04pm

Fri Sep 17, 8:04pm

Fri Sep 17, 7:04pm

Fri Sep 17, 6:04pm

Fri Sep 17, 5:04pm

Fri Sep 17, 4:04pm

Fri Sep 17, 3:04pm

Fri Sep 17, 2:04pm

Fri Sep 17, 1:04pm

Fri Sep 17, 12:05pm

Fri Sep 17, 11:04am

Fri Sep 17, 10:04am

Fri Sep 17, 9:04am

Fri Sep 17, 8:04am

Fri Sep 17, 7:04am

Fri Sep 17, 6:04am

Fri Sep 17, 5:04am

Fri Sep 17, 4:04am

Fri Sep 17, 3:04am

Fri Sep 17, 2:04am

Fri Sep 17, 1:04am

Fri Sep 17, 12:04am

Thu Sep 16, 11:04pm

Thu Sep 16, 10:04pm

Thu Sep 16, 9:04pm

Thu Sep 16, 8:04pm

Thu Sep 16, 7:04pm

Thu Sep 16, 6:04pm

Thu Sep 16, 5:04pm

Thu Sep 16, 4:04pm

Thu Sep 16, 3:04pm

Thu Sep 16, 2:04pm

Thu Sep 16, 1:05pm

Thu Sep 16, 12:04pm

Thu Sep 16, 11:05am

Thu Sep 16, 10:05am

Thu Sep 16, 9:04am

Thu Sep 16, 8:04am

Thu Sep 16, 7:04am

Thu Sep 16, 6:04am

Thu Sep 16, 5:04am

Meta data:

ID: 7f095229-c370-4861-ad81-c0be3978d0f4
Link: https://api.weather.gov/products/7f095229-c370-4861-ad81-c0be3978d0f4